Regional Weather Roundup
Issued by NWS

Home | Current Version | Previous Version | Graphics & Text | Print | Product List | Glossary On
Versions: 1 2 3 4 5 6 7 8 9 10 11 12 13 14 15 16 17 18 19 20 21 22 23 24 25 26 27 28 29 30 31 32 33 34 35 36 37 38 39 40 41 42 43 44 45 46 47 48 49 50
000
ASUS43 KOAX 030410
RWRNE

WEATHER ROUNDUP FOR NEBRASKA
NATIONAL WEATHER SERVICE OMAHA NE
1100 PM CDT MON MAY 02 2016

NOTES: SATELLITE DATA IS BEING USED TO AUGMENT CLOUD COVER ABOVE
       12000 FEET.
       "FAIR" INDICATES FEW OR NO CLOUDS BELOW 12,000 FEET WITH NO
       SIGNIFICANT WEATHER AND/OR OBSTRUCTIONS TO VISIBILITY.

  * THESE STATIONS DO NOT REPORT WEATHER SUCH AS RAIN...SNOW OR FOG.

NEZ001>004-019>022-054>056-030500-
NEBRASKA PANHANDLE

CITY           SKY/WX    TMP DP  RH WIND       PRES   REMARKS
SCOTTSBLUFF    CLEAR     44  35  70 N7        30.06R
ALLIANCE       MOCLDY    47  40  76 NE7       30.07R
CHADRON        LGT RAIN  49  43  80 SW7       30.04R
KIMBALL        CLOUDY    45  34  66 NW9       30.09R
SIDNEY         CLEAR     43  34  70 NW9       30.05S
$$

NEZ057>060-069>072-079>082-030500-
SOUTHWEST NEBRASKA

CITY           SKY/WX    TMP DP  RH WIND       PRES   REMARKS
NORTH PLATTE   CLOUDY    45  40  82 E6        30.02S
IMPERIAL       CLOUDY    50  35  56 SW6       30.03F
LEXINGTON      MOCLDY    48  41  77 S3        30.04S
MCCOOK         CLOUDY    47  37  68 W6        30.04R
OGALLALA       MOCLDY    45  38  76 CALM      30.03R
$$

NEZ005>010-023>029-035>040-094-030500-
NORTH CENTRAL NEBRASKA

CITY           SKY/WX    TMP DP  RH WIND       PRES   REMARKS
VALENTINE      LGT RAIN  46  43  89 CALM      30.06R
AINSWORTH      CLOUDY    48  43  82 N7        30.05R
BROKEN BOW     MOCLDY    44  39  82 E3        30.03R
O`NEILL        CLOUDY    51  46  83 CALM      30.04R
ORD            PTCLDY    48  40  73 CALM      30.03R
THEDFORD       LGT RAIN  48  43  81 N14G21    30.07R
$$

NEZ041-046>049-061>064-073>077-083>087-030500-
SOUTH CENTRAL NEBRASKA

CITY           SKY/WX    TMP DP  RH WIND       PRES   REMARKS
GRAND ISLAND   CLEAR     49  41  74 S6        30.05S
AURORA         PTCLDY    50  41  70 S3        30.05S
HASTINGS       CLEAR     50  38  63 SE5       30.05R
HEBRON         CLEAR     47  41  80 CALM      30.05S
HOLDREGE       MOCLDY    48  40  75 SE6       30.04S
KEARNEY *      CLEAR     46  37  71 S7        30.05S
YORK           PTCLDY    52  41  66 CALM      30.05S
$$

NEZ011>018-030>034-042>045-030500-
NORTHEAST NEBRASKA

CITY           SKY/WX    TMP DP  RH WIND       PRES   REMARKS
NORFOLK        PTCLDY    49  39  68 S8        30.03S
ALBION         PTCLDY    49  39  70 SE3       30.04S
BLAIR          PTCLDY    53  40  63 CALM      30.05R
COLUMBUS *     PTCLDY    50  36  57 S3        30.06R
FREMONT        PTCLDY    50  45  82 CALM      30.05S
TEKAMAH        PTCLDY    51  45  79 CALM      30.04S
WAYNE          PTCLDY    43  39  85 CALM      30.04S
$$

NEZ050>053-065>068-078-088>093-030500-
SOUTHEAST NEBRASKA

CITY           SKY/WX    TMP DP  RH WIND       PRES   REMARKS
LINCOLN        PTCLDY    50  39  66 CALM      30.06S
OMAHA EPPLEY   PTCLDY    52  41  66 CALM      30.05R
BEATRICE       PTCLDY    49  42  76 CALM      30.05F
FALLS CITY     CLEAR     50  42  74 SW3       30.05S
NEBRASKA CITY  CLEAR     51  40  66 S5        30.05F
PLATTSMOUTH    CLEAR     51  40  64 S5        30.05S
$$

NEZ044-045-051>053-067-030500-
OMAHA AREA

CITY           SKY/WX    TMP DP  RH WIND       PRES   REMARKS
OMAHA EPPLEY   PTCLDY    52  41  66 CALM      30.05R
BLAIR          PTCLDY    53  40  63 CALM      30.05R
FREMONT        PTCLDY    50  45  82 CALM      30.05S
MILLARD        CLEAR     48  42  80 CALM      30.05S
PLATTSMOUTH    CLEAR     51  40  64 S5        30.05S
WAHOO          FAIR      52  43  70 SW3       30.05S
$$



USA.gov is the U.S. government's official web portal to all federal, state and local government web resources and services.